Weather past 2 weeks in Amsterdam Island, French Southern Territories

Now
53 °F

Cool.


Feels Like: 52 °F
Forecast: 54 / 57 °F
Wind: 5 mph from Southwest

Location: Martin De Vivies Ile Amsterdam

Current Time: Aug 1, 2015 at 12:55:07 AM

Latest Report: Aug 1, 2015 at 12:00 AM


Visibility: N/A

Pressure: 30.19 "Hg

Humidity: 96%

Dew point: 52 °F

Location of Amsterdam IslandLocation

Historic Weather in Amsterdam Island — Graph

°F

Amsterdam Island temperature yesterday

Maximum temperature yesterday: 58 °F (at 11:00 AM)
Minimum temperature yesterday: 53 °F (at 7:00 AM)
Average temperature yesterday: 56 °F

Past Weeks' High & Low Weather Summary

 TemperatureHumidityPressure
High59 °F (Jul 26, 12:00 PM)96% (Jul 27, 4:00 AM)30.61 "Hg (Jul 27, 4:00 AM)
Low45 °F (Jul 18, 7:00 AM)55% (Jul 28, 2:00 PM)29.76 "Hg (Jul 24, 2:00 PM)
Average53 °F79%30.26 "Hg
* Reported Midnight between Jul 16 and Jul 17 — Midnight between Jul 31 and Aug 1, Amsterdam Island, Weather by CustomWeather, © 2015

Note: Actual official high and low records may vary slightly from our data, if they occured in-between our weather recording intervals... More about our weather records

Advertising

Amsterdam Island weather history for previous 24 hours

 ConditionsComfort  
Time TempWeatherWind HumidityBarometerVisibility
12:00 AM
Sat, Aug 1
53 °FCool.5 mph96%30.19 "HgN/A
11:00 PM
Fri, Jul 31
54 °FCool.6 mph96%30.19 "HgN/A
10:00 PM55 °FCool.7 mph96%30.19 "HgN/A
9:00 PM55 °FCool.7 mph96%30.19 "HgN/A
8:00 PM55 °FCool.6 mph96%30.19 "HgN/A
7:00 PM55 °FCool.8 mph96%30.18 "HgN/A
6:00 PM54 °FCool.9 mph96%30.17 "HgN/A
5:00 PM54 °FCool.10 mph95%30.16 "HgN/A
4:00 PM55 °FCool.10 mph95%30.16 "HgN/A
3:00 PM56 °FCool.12 mph95%30.14 "HgN/A
2:00 PM56 °FCool.10 mph94%30.14 "HgN/A
1:00 PM56 °FCool.12 mph92%30.15 "HgN/A
12:00 PM58 °FCool.12 mph89%30.16 "HgN/A
11:00 AM58 °FCool.12 mph91%30.17 "HgN/A
10:00 AM57 °FCool.12 mph91%30.18 "HgN/A
7:00 AM53 °FCool.10 mph94%30.14 "HgN/A
6:00 AM55 °FCool.14 mph95%30.13 "HgN/A
5:00 AM55 °FCool.12 mph96%30.13 "HgN/A
4:00 AM56 °FCool.9 mph96%30.11 "HgN/A
1:00 AM56 °FCool.16 mph96%30.14 "HgN/A
12:00 AM56 °FCool.22 mph96%30.16 "HgN/A
Weather by CustomWeather, © 2015

See weather overviewHow to use our weather pages